Time,TemperatureF,DewpointF,PressureIn,WindDirection,WindDirectionDegrees,WindSpeedMPH,WindSpeedGustMPH,Humidity,HourlyPrecipIn,Conditions,Clouds,dailyrainin,SoftwareType,DateUTC
2013-01-16 00:02:00,12.0,9.0,30.16,SW,229,0.0,2.0,86,0.00,,,0.00,,2013-01-16 06:02:00,
2013-01-16 00:12:00,12.0,9.0,30.16,SW,229,0.0,2.0,86,0.00,,,0.00,,2013-01-16 06:12:00,
2013-01-16 00:22:00,12.0,9.0,30.15,SW,229,0.0,1.0,86,0.00,,,0.00,,2013-01-16 06:22:00,
2013-01-16 00:32:00,11.0,8.0,30.15,SW,229,1.0,2.0,86,0.00,,,0.00,,2013-01-16 06:32:00,
2013-01-16 00:43:00,11.0,8.0,30.15,SW,229,1.0,2.0,86,0.00,,,0.00,,2013-01-16 06:43:00,
2013-01-16 00:53:00,11.0,8.0,30.14,SW,229,0.0,2.0,86,0.00,,,0.00,,2013-01-16 06:53:00,
2013-01-16 01:02:00,11.0,8.0,30.14,SW,229,0.0,2.0,87,0.00,,,0.00,,2013-01-16 07:02:00,
2013-01-16 01:12:00,11.0,8.0,30.14,SW,229,0.0,2.0,87,0.00,,,0.00,,2013-01-16 07:12:00,
2013-01-16 01:22:00,11.0,8.0,30.13,SW,229,0.0,0.0,87,0.00,,,0.00,,2013-01-16 07:22:00,
2013-01-16 01:32:00,12.0,9.0,30.13,SW,229,0.0,1.0,87,0.00,,,0.00,,2013-01-16 07:32:00,
2013-01-16 01:42:00,12.0,9.0,30.13,SW,229,0.0,1.0,87,0.00,,,0.00,,2013-01-16 07:42:00,
2013-01-16 01:52:00,12.0,9.0,30.12,SW,229,0.0,2.0,86,0.00,,,0.00,,2013-01-16 07:52:00,
2013-01-16 02:02:00,12.0,9.0,30.12,SW,229,0.0,2.0,86,0.00,,,0.00,,2013-01-16 08:02:00,
2013-01-16 02:12:00,12.0,9.0,30.12,SW,229,0.0,2.0,86,0.00,,,0.00,,2013-01-16 08:12:00,
2013-01-16 02:22:00,13.0,10.0,30.12,SW,229,0.0,2.0,87,0.00,,,0.00,,2013-01-16 08:22:00,
2013-01-16 02:32:00,15.0,11.0,30.13,SE,131,0.0,2.0,84,0.00,,,0.00,,2013-01-16 08:32:00,
2013-01-16 02:42:00,15.0,11.0,30.13,SE,131,0.0,2.0,84,0.00,,,0.00,,2013-01-16 08:42:00,
2013-01-16 02:53:00,16.0,11.0,30.12,SE,131,0.0,2.0,80,0.00,,,0.00,,2013-01-16 08:53:00,
2013-01-16 03:02:00,15.0,10.0,30.11,SE,131,1.0,2.0,79,0.00,,,0.00,,2013-01-16 09:02:00,
2013-01-16 03:12:00,15.0,10.0,30.11,SE,131,1.0,2.0,79,0.00,,,0.00,,2013-01-16 09:12:00,
2013-01-16 03:22:00,15.0,10.0,30.11,SE,131,1.0,2.0,80,0.00,,,0.00,,2013-01-16 09:22:00,
2013-01-16 03:32:00,15.0,10.0,30.10,SE,131,0.0,2.0,79,0.00,,,0.00,,2013-01-16 09:32:00,
2013-01-16 03:42:00,15.0,10.0,30.10,SE,131,0.0,2.0,79,0.00,,,0.00,,2013-01-16 09:42:00,
2013-01-16 03:53:00,14.0,9.0,30.10,SE,131,1.0,2.0,79,0.00,,,0.00,,2013-01-16 09:53:00,
2013-01-16 04:02:00,14.0,9.0,30.08,SE,125,1.0,3.0,80,0.00,,,0.00,,2013-01-16 10:02:00,
2013-01-16 04:12:00,14.0,9.0,30.08,SE,125,1.0,3.0,80,0.00,,,0.00,,2013-01-16 10:12:00,
2013-01-16 04:22:00,14.0,9.0,30.08,SE,125,1.0,3.0,80,0.00,,,0.00,,2013-01-16 10:22:00,
2013-01-16 04:32:00,17.0,10.0,30.06,SE,145,0.0,4.0,75,0.00,,,0.00,,2013-01-16 10:32:00,
2013-01-16 04:42:00,17.0,10.0,30.06,SE,145,0.0,4.0,75,0.00,,,0.00,,2013-01-16 10:42:00,
2013-01-16 04:53:00,17.0,10.0,30.05,SSW,200,2.0,4.0,75,0.00,,,0.00,,2013-01-16 10:53:00,
2013-01-16 05:02:00,17.0,10.0,30.04,ESE,119,1.0,5.0,75,0.00,,,0.00,,2013-01-16 11:02:00,
2013-01-16 05:12:00,17.0,10.0,30.04,ESE,119,1.0,5.0,75,0.00,,,0.00,,2013-01-16 11:12:00,
2013-01-16 05:22:00,16.0,10.0,30.04,ESE,119,1.0,4.0,76,0.00,,,0.00,,2013-01-16 11:22:00,
2013-01-16 05:32:00,16.0,10.0,30.04,SE,133,1.0,4.0,77,0.00,,,0.00,,2013-01-16 11:32:00,
2013-01-16 05:42:00,16.0,10.0,30.04,SE,133,1.0,4.0,77,0.00,,,0.00,,2013-01-16 11:42:00,
2013-01-16 05:53:00,16.0,10.0,30.03,SE,134,1.0,6.0,77,0.00,,,0.00,,2013-01-16 11:53:00,
2013-01-16 06:03:00,15.0,9.0,30.03,ESE,119,0.0,4.0,76,0.00,,,0.00,,2013-01-16 12:03:00,
2013-01-16 06:13:00,15.0,9.0,30.03,ESE,119,0.0,4.0,76,0.00,,,0.00,,2013-01-16 12:13:00,
2013-01-16 06:22:00,15.0,9.0,30.03,SE,134,0.0,3.0,76,0.00,,,0.00,,2013-01-16 12:22:00,
2013-01-16 06:33:00,15.0,9.0,30.03,ESE,110,0.0,3.0,76,0.00,,,0.00,,2013-01-16 12:33:00,
2013-01-16 06:43:00,15.0,9.0,30.03,ESE,110,0.0,3.0,76,0.00,,,0.00,,2013-01-16 12:43:00,
2013-01-16 06:53:00,16.0,9.0,30.02,WSW,253,0.0,4.0,75,0.00,,,0.00,,2013-01-16 12:53:00,
2013-01-16 07:03:00,16.0,9.0,30.01,SE,129,1.0,4.0,74,0.00,,,0.00,,2013-01-16 13:03:00,
2013-01-16 07:12:00,16.0,9.0,30.01,SE,129,1.0,4.0,74,0.00,,,0.00,,2013-01-16 13:12:00,
2013-01-16 07:22:00,17.0,10.0,30.00,SE,133,1.0,5.0,73,0.00,,,0.00,,2013-01-16 13:22:00,
2013-01-16 07:33:00,17.0,10.0,29.99,East,96,1.0,5.0,73,0.00,,,0.00,,2013-01-16 13:33:00,
2013-01-16 07:43:00,17.0,10.0,29.99,East,96,1.0,5.0,73,0.00,,,0.00,,2013-01-16 13:43:00,
2013-01-16 07:53:00,17.0,10.0,30.00,West,266,1.0,3.0,74,0.00,,,0.00,,2013-01-16 13:53:00,
2013-01-16 08:03:00,17.0,10.0,30.00,ESE,113,1.0,7.0,74,0.00,,,0.00,,2013-01-16 14:03:00,
2013-01-16 08:12:00,17.0,10.0,30.00,ESE,113,1.0,7.0,74,0.00,,,0.00,,2013-01-16 14:12:00,
2013-01-16 08:23:00,17.0,10.0,30.00,SSE,161,1.0,5.0,73,0.00,,,0.00,,2013-01-16 14:23:00,
2013-01-16 08:32:00,18.0,11.0,30.01,SSW,196,0.0,4.0,73,0.00,,,0.00,,2013-01-16 14:32:00,
2013-01-16 08:42:00,18.0,11.0,30.01,SSW,196,0.0,4.0,73,0.00,,,0.00,,2013-01-16 14:42:00,
2013-01-16 08:53:00,19.0,11.0,30.00,ESE,116,2.0,7.0,72,0.00,,,0.00,,2013-01-16 14:53:00,
2013-01-16 09:03:00,20.0,12.0,30.00,North,360,0.0,5.0,71,0.00,,,0.00,,2013-01-16 15:03:00,
2013-01-16 09:12:00,20.0,12.0,30.00,North,360,0.0,5.0,71,0.00,,,0.00,,2013-01-16 15:12:00,
2013-01-16 09:23:00,22.0,14.0,29.99,SSE,161,2.0,6.0,70,0.00,,,0.00,,2013-01-16 15:23:00,
2013-01-16 09:33:00,23.0,14.0,29.98,West,259,1.0,5.0,69,0.00,,,0.00,,2013-01-16 15:33:00,
2013-01-16 09:43:00,23.0,14.0,29.98,West,259,1.0,5.0,69,0.00,,,0.00,,2013-01-16 15:43:00,
2013-01-16 09:53:00,23.0,14.0,29.98,West,259,1.0,5.0,69,0.00,,,0.00,,2013-01-16 15:53:00,
2013-01-16 10:03:00,25.0,16.0,29.96,WNW,294,3.0,8.0,69,0.00,,,0.00,,2013-01-16 16:03:00,
2013-01-16 10:12:00,25.0,16.0,29.96,WNW,294,3.0,8.0,69,0.00,,,0.00,,2013-01-16 16:12:00,
2013-01-16 10:22:00,25.0,17.0,29.96,WSW,254,1.0,7.0,70,0.00,,,0.00,,2013-01-16 16:22:00,
2013-01-16 10:33:00,27.0,18.0,29.96,North,349,2.0,13.0,69,0.00,,,0.00,,2013-01-16 16:33:00,
2013-01-16 10:42:00,27.0,18.0,29.96,North,349,2.0,13.0,69,0.00,,,0.00,,2013-01-16 16:42:00,
2013-01-16 10:53:00,28.0,18.0,29.95,West,260,5.0,15.0,66,0.00,,,0.00,,2013-01-16 16:53:00,
2013-01-16 11:03:00,29.0,19.0,29.94,North,9,3.0,10.0,67,0.00,,,0.00,,2013-01-16 17:03:00,
2013-01-16 11:12:00,29.0,19.0,29.94,North,9,3.0,10.0,67,0.00,,,0.00,,2013-01-16 17:12:00,
2013-01-16 11:23:00,29.0,19.0,29.93,West,279,3.0,23.0,67,0.00,,,0.00,,2013-01-16 17:23:00,
2013-01-16 11:33:00,30.0,20.0,29.92,SSE,151,4.0,17.0,67,0.00,,,0.00,,2013-01-16 17:33:00,
2013-01-16 11:43:00,30.0,20.0,29.92,SSE,151,4.0,17.0,67,0.00,,,0.00,,2013-01-16 17:43:00,
2013-01-16 11:53:00,30.0,20.0,29.91,West,260,4.0,12.0,67,0.00,,,0.00,,2013-01-16 17:53:00,
2013-01-16 12:03:00,31.0,21.0,29.91,SSW,201,5.0,14.0,66,0.00,,,0.00,,2013-01-16 18:03:00,
2013-01-16 12:13:00,31.0,21.0,29.91,SSW,201,5.0,14.0,66,0.00,,,0.00,,2013-01-16 18:13:00,
2013-01-16 12:23:00,32.0,21.0,29.89,South,169,4.0,14.0,64,0.00,,,0.00,,2013-01-16 18:23:00,
2013-01-16 12:33:00,32.0,21.0,29.89,West,266,4.0,11.0,63,0.00,,,0.00,,2013-01-16 18:33:00,
2013-01-16 12:42:00,32.0,21.0,29.89,West,266,4.0,11.0,63,0.00,,,0.00,,2013-01-16 18:42:00,
2013-01-16 12:53:00,32.0,21.0,29.88,SSE,168,4.0,18.0,64,0.00,,,0.00,,2013-01-16 18:53:00,
2013-01-16 13:03:00,32.0,21.0,29.87,WSW,257,4.0,15.0,64,0.00,,,0.00,,2013-01-16 19:03:00,
2013-01-16 13:12:00,32.0,21.0,29.87,WSW,257,4.0,15.0,64,0.00,,,0.00,,2013-01-16 19:12:00,
2013-01-16 13:23:00,33.0,22.0,29.88,WSW,246,5.0,19.0,64,0.00,,,0.00,,2013-01-16 19:23:00,
2013-01-16 13:33:00,33.0,23.0,29.89,WSW,248,5.0,12.0,65,0.00,,,0.00,,2013-01-16 19:33:00,
2013-01-16 13:43:00,33.0,23.0,29.89,WSW,248,5.0,12.0,65,0.00,,,0.00,,2013-01-16 19:43:00,
2013-01-16 13:53:00,32.0,22.0,29.89,West,277,7.0,18.0,67,0.00,,,0.00,,2013-01-16 19:53:00,
2013-01-16 14:03:00,32.0,22.0,29.89,West,277,7.0,18.0,67,0.00,,,0.00,,2013-01-16 20:03:00,
2013-01-16 14:12:00,32.0,22.0,29.89,West,277,7.0,18.0,67,0.00,,,0.00,,2013-01-16 20:12:00,
2013-01-16 14:23:00,33.0,24.0,29.89,West,261,3.0,9.0,69,0.00,,,0.00,,2013-01-16 20:23:00,
2013-01-16 14:33:00,33.0,25.0,29.89,NW,305,3.0,11.0,71,0.00,,,0.00,,2013-01-16 20:33:00,
2013-01-16 14:43:00,33.0,25.0,29.89,NW,305,3.0,11.0,71,0.00,,,0.00,,2013-01-16 20:43:00,
2013-01-16 14:53:00,33.0,24.0,29.90,WSW,254,3.0,14.0,70,0.00,,,0.00,,2013-01-16 20:53:00,
2013-01-16 15:03:00,33.0,24.0,29.90,SSE,149,4.0,10.0,70,0.00,,,0.00,,2013-01-16 21:03:00,
2013-01-16 15:12:00,33.0,24.0,29.90,SSE,149,4.0,10.0,70,0.00,,,0.00,,2013-01-16 21:12:00,
2013-01-16 15:22:00,33.0,25.0,29.91,West,261,4.0,12.0,71,0.00,,,0.00,,2013-01-16 21:22:00,
2013-01-16 15:33:00,33.0,25.0,29.91,West,265,2.0,9.0,72,0.00,,,0.00,,2013-01-16 21:33:00,
2013-01-16 15:43:00,33.0,25.0,29.91,West,265,2.0,9.0,72,0.00,,,0.00,,2013-01-16 21:43:00,
2013-01-16 15:53:00,33.0,26.0,29.92,West,272,2.0,6.0,74,0.00,,,0.00,,2013-01-16 21:53:00,
2013-01-16 16:02:00,33.0,25.0,29.93,SE,132,3.0,10.0,73,0.00,,,0.00,,2013-01-16 22:02:00,
2013-01-16 16:12:00,33.0,25.0,29.93,SE,132,3.0,10.0,73,0.00,,,0.00,,2013-01-16 22:12:00,
2013-01-16 16:23:00,33.0,25.0,29.94,SW,228,3.0,14.0,73,0.00,,,0.00,,2013-01-16 22:23:00,
2013-01-16 16:33:00,33.0,25.0,29.94,SW,228,3.0,14.0,73,0.00,,,0.00,,2013-01-16 22:33:00,
2013-01-16 16:43:00,33.0,25.0,29.94,SW,228,3.0,14.0,73,0.00,,,0.00,,2013-01-16 22:43:00,
2013-01-16 16:53:00,33.0,26.0,29.95,WSW,239,2.0,12.0,74,0.00,,,0.00,,2013-01-16 22:53:00,
2013-01-16 17:02:00,33.0,26.0,29.95,WSW,239,2.0,12.0,74,0.00,,,0.00,,2013-01-16 23:02:00,
2013-01-16 17:12:00,33.0,26.0,29.95,WSW,239,2.0,12.0,74,0.00,,,0.00,,2013-01-16 23:12:00,
2013-01-16 17:23:00,33.0,26.0,29.96,West,259,1.0,5.0,76,0.00,,,0.00,,2013-01-16 23:23:00,
2013-01-16 17:32:00,33.0,26.0,29.96,SE,132,2.0,7.0,76,0.00,,,0.00,,2013-01-16 23:32:00,
2013-01-16 17:43:00,33.0,26.0,29.96,SE,132,2.0,7.0,76,0.00,,,0.00,,2013-01-16 23:43:00,
2013-01-16 17:53:00,33.0,27.0,29.97,WSW,250,2.0,8.0,77,0.00,,,0.00,,2013-01-16 23:53:00,
2013-01-16 18:02:00,33.0,27.0,29.97,WSW,250,2.0,8.0,77,0.00,,,0.00,,2013-01-17 00:02:00,
2013-01-16 18:12:00,33.0,27.0,29.97,WSW,250,2.0,8.0,77,0.00,,,0.00,,2013-01-17 00:12:00,
2013-01-16 18:22:00,32.0,26.0,29.98,WSW,256,1.0,6.0,78,0.00,,,0.00,,2013-01-17 00:22:00,
2013-01-16 18:32:00,32.0,26.0,29.98,West,275,0.0,5.0,79,0.00,,,0.00,,2013-01-17 00:32:00,
2013-01-16 18:42:00,32.0,26.0,29.98,West,275,0.0,5.0,79,0.00,,,0.00,,2013-01-17 00:42:00,
2013-01-16 18:52:00,31.0,26.0,29.99,WSW,253,0.0,4.0,80,0.00,,,0.00,,2013-01-17 00:52:00,
2013-01-16 19:02:00,31.0,26.0,29.99,West,261,0.0,4.0,80,0.00,,,0.00,,2013-01-17 01:02:00,
2013-01-16 19:12:00,31.0,26.0,29.99,West,261,0.0,4.0,80,0.00,,,0.00,,2013-01-17 01:12:00,
2013-01-16 19:22:00,31.0,26.0,30.00,West,271,0.0,3.0,81,0.00,,,0.00,,2013-01-17 01:22:00,
2013-01-16 19:32:00,32.0,27.0,30.01,SSE,155,0.0,2.0,81,0.00,,,0.00,,2013-01-17 01:32:00,
2013-01-16 19:42:00,32.0,27.0,30.01,SSE,155,0.0,2.0,81,0.00,,,0.00,,2013-01-17 01:42:00,
2013-01-16 19:52:00,32.0,27.0,30.02,WSW,251,0.0,4.0,81,0.00,,,0.00,,2013-01-17 01:52:00,
2013-01-16 20:02:00,33.0,28.0,30.02,WSW,248,0.0,2.0,82,0.00,,,0.00,,2013-01-17 02:02:00,
2013-01-16 20:12:00,33.0,28.0,30.02,WSW,248,0.0,2.0,82,0.00,,,0.00,,2013-01-17 02:12:00,
2013-01-16 20:22:00,33.0,28.0,30.03,WSW,240,0.0,1.0,82,0.00,,,0.00,,2013-01-17 02:22:00,
2013-01-16 20:32:00,33.0,28.0,30.03,WSW,240,0.0,3.0,81,0.00,,,0.00,,2013-01-17 02:32:00,
2013-01-16 20:42:00,33.0,28.0,30.03,WSW,240,0.0,3.0,81,0.00,,,0.00,,2013-01-17 02:42:00,
2013-01-16 20:52:00,33.0,28.0,30.03,WSW,240,0.0,3.0,81,0.00,,,0.00,,2013-01-17 02:52:00,
2013-01-16 21:02:00,34.0,29.0,30.04,West,279,0.0,4.0,81,0.00,,,0.00,,2013-01-17 03:02:00,
2013-01-16 21:12:00,34.0,29.0,30.04,West,279,0.0,4.0,81,0.00,,,0.00,,2013-01-17 03:12:00,
2013-01-16 21:22:00,34.0,29.0,30.04,WSW,258,0.0,2.0,81,0.00,,,0.00,,2013-01-17 03:22:00,
2013-01-16 21:32:00,34.0,29.0,30.03,WSW,258,0.0,1.0,82,0.00,,,0.00,,2013-01-17 03:32:00,
2013-01-16 21:42:00,34.0,29.0,30.03,WSW,258,0.0,1.0,82,0.00,,,0.00,,2013-01-17 03:42:00,
2013-01-16 21:52:00,34.0,29.0,30.04,WSW,258,0.0,2.0,82,0.00,,,0.00,,2013-01-17 03:52:00,
2013-01-16 22:02:00,34.0,29.0,30.04,WSW,258,1.0,4.0,81,0.00,,,0.00,,2013-01-17 04:02:00,
2013-01-16 22:12:00,34.0,29.0,30.04,WSW,257,0.0,3.0,81,0.00,,,0.00,,2013-01-17 04:12:00,
2013-01-16 22:22:00,34.0,29.0,30.04,WSW,257,0.0,3.0,81,0.00,,,0.00,,2013-01-17 04:22:00,
2013-01-16 22:32:00,34.0,29.0,30.04,WSW,254,0.0,3.0,81,0.00,,,0.00,,2013-01-17 04:32:00,
2013-01-16 22:42:00,34.0,29.0,30.04,WSW,254,0.0,3.0,81,0.00,,,0.00,,2013-01-17 04:42:00,
2013-01-16 22:52:00,34.0,29.0,30.04,WSW,252,1.0,4.0,82,0.00,,,0.00,,2013-01-17 04:52:00,
2013-01-16 23:04:00,34.0,29.0,30.05,WSW,252,0.0,3.0,82,0.00,,,0.00,,2013-01-17 05:04:00,
2013-01-16 23:12:00,34.0,29.0,30.05,WSW,252,0.0,3.0,82,0.00,,,0.00,,2013-01-17 05:12:00,
2013-01-16 23:22:00,34.0,29.0,30.04,SW,215,0.0,3.0,83,0.00,,,0.00,,2013-01-17 05:22:00,
2013-01-16 23:33:00,34.0,29.0,30.06,WSW,250,1.0,4.0,83,0.00,,,0.00,,2013-01-17 05:33:00,
2013-01-16 23:42:00,34.0,29.0,30.06,WSW,250,1.0,4.0,83,0.00,,,0.00,,2013-01-17 05:42:00,
2013-01-16 23:53:00,34.0,29.0,30.07,WSW,248,0.0,3.0,83,0.00,,,0.00,,2013-01-17 05:53:00,